Location: Temagami
(47.0645°N, 79.7909°W)
Time: 22:58:24
(UTC-04:00)

ARIANE 6 FM1 Upper Stage - Visible Passes

Search period start: 07 June 2026 00:00
Search period end: 17 June 2026 00:00
Orbit: 528 x 599 km, 62.0° (Epoch: 7 June)

Date Brightness Start Highest point End Pass type
(mag) Time Alt. Az. Time Alt. Az. Time Alt. Az.
7 Jun 3.1 03:45:51 18° SSW 03:48:41 51° SE 03:52:41 10° NE visible
8 Jun 2.7 03:45:10 20° SSW 03:48:00 73° SE 03:52:06 10° NE visible
9 Jun 4.8 02:08:29 14° ESE 02:08:53 14° ESE 02:11:03 10° E visible
9 Jun 2.6 03:44:26 19° SW 03:47:19 81° NW 03:51:27 10° NE visible
10 Jun 4.4 02:07:42 19° SE 02:08:04 20° ESE 02:11:05 10° ENE visible
10 Jun 3.0 03:43:38 17° WSW 03:46:42 59° NW 03:50:46 10° NE visible
11 Jun 3.9 02:06:51 27° SE 02:07:16 27° ESE 02:10:48 10° ENE visible
11 Jun 3.5 03:42:47 14° WSW 03:46:06 43° NW 03:50:02 10° NNE visible
12 Jun 3.3 02:05:57 36° SE 02:06:30 38° ESE 02:10:20 10° NE visible
12 Jun 4.0 03:41:53 11° WSW 03:45:31 33° NW 03:49:16 10° NNE visible
13 Jun 2.8 02:04:59 46° SSE 02:05:45 54° SE 02:09:47 10° NE visible
13 Jun 4.4 03:41:24 10° W 03:44:58 27° NW 03:48:28 10° NNE visible
14 Jun 2.5 02:03:57 48° SSW 02:05:01 77° SE 02:09:09 10° NE visible
14 Jun 4.7 03:41:11 10° W 03:44:26 22° NNW 03:47:39 10° NNE visible
15 Jun 4.8 00:26:55 14° E 00:26:55 14° E 00:28:14 10° E visible
15 Jun 2.7 02:02:51 39° SW 02:04:20 77° NW 02:08:28 10° NE visible
15 Jun 5.0 03:41:01 10° WNW 03:43:56 18° NNW 03:46:49 10° NNE visible
16 Jun 4.3 00:25:45 20° ESE 00:25:45 20° ESE 00:28:08 10° ENE visible
16 Jun 3.1 02:01:40 27° WSW 02:03:40 56° NW 02:07:44 10° NE visible
16 Jun 5.3 03:40:57 10° WNW 03:43:27 15° NNW 03:45:57 10° NNE visible
